Olney-Noble, IL

1:10 AM CST on November 18, 2017 (GMT -0600)
Olney-Noble

Weather History for KOLY - March, 2013

Change the Weather History Date:

Tuesday, March 12, 2013

  Actual Average (KEVV) Record (KEVV)
Temperature  
Mean Temperature 39 °F -  
Max Temperature 48 °F 55 °F 79 °F (1967)
Min Temperature 30 °F 37 °F 11 °F (1998)
Degree Days  
Heating Degree Days 26    
Moisture  
Dew Point 29 °F    
Average Humidity 69    
Maximum Humidity 86    
Minimum Humidity 49    
Precipitation  
Precipitation 0.00 in - - ()
Sea Level Pressure  
Sea Level Pressure 30.05 in    
Wind  
Wind Speed 9 mph (West)    
Max Wind Speed 17 mph    
Max Gust Speed 26 mph    
Visibility 10 miles    
Events Snow    
Averages and records for this station are not official NWS values.
T = Trace of Precipitation, MM = Missing Value Source: NWS Daily Summary

Daily Weather History Graph

Daily Weather History Graph

Search for Another Location

Airport or City:

Trip Planner

Search our weather history database for the weather conditions in past years. The results will help you decide how hot, cold, wet, or windy it might be!

Date:

Astronomy

Mar. 12, 2013 Rise Set
Actual Time 7:08 AM CDT 6:57 PM CDT
Civil Twilight 6:41 AM CDT 7:23 PM CDT
Nautical Twilight 6:10 AM CDT 7:54 PM CDT
Astronomical Twilight 5:39 AM CDT 8:25 PM CDT
Moon 7:15 AM CDT (3/12) 8:10 PM CDT (3/12)
Length of Visible Light 12h 41m
Length of Day
11h 48m
New Moon, 1% of the Moon is Illuminated
Mar 12
New Moon
Mar 19
First Quarter
Mar 27
Full
Apr 2
Last Quarter
Apr 10
New

Hourly Weather History & Observations

Time (CDT) Temp. Windchill Dew Point Humidity Pressure Visibility Wind Dir Wind Speed Gust Speed Precip Events Conditions
12:15 AM 35.6 °F 29.9 °F 30.2 °F 81% 2.99 in 10.0 mi WSW 6.9 mph - N/A   Overcast
12:35 AM 35.6 °F - 30.2 °F 81% 29.97 in 10.0 mi Calm Calm - N/A   Overcast
12:55 AM 35.6 °F 29.9 °F 30.2 °F 81% 29.97 in 10.0 mi WSW 6.9 mph - N/A   Overcast
1:15 AM 35.6 °F 29.9 °F 30.2 °F 81% 29.98 in 10.0 mi WSW 6.9 mph - N/A   Overcast
1:35 AM 35.6 °F 29.2 °F 30.2 °F 81% 29.98 in 10.0 mi West 8.1 mph - N/A   Overcast
1:55 AM 35.6 °F 29.2 °F 30.2 °F 81% 29.97 in 10.0 mi West 8.1 mph - N/A   Overcast
2:15 AM 35.6 °F 30.7 °F 30.2 °F 81% 29.98 in 10.0 mi West 5.8 mph - N/A   Overcast
2:35 AM 35.6 °F 28.6 °F 30.2 °F 81% 29.97 in 10.0 mi West 9.2 mph - N/A   Overcast
2:55 AM 35.6 °F 27.1 °F 28.4 °F 75% 29.97 in 10.0 mi West 12.7 mph 17.3 mph N/A   Overcast
3:15 AM 33.8 °F 25.3 °F 26.6 °F 75% 29.98 in 10.0 mi West 11.5 mph - N/A   Scattered Clouds
3:35 AM 33.8 °F 24.8 °F 26.6 °F 75% 29.98 in 10.0 mi West 12.7 mph - N/A   Clear
3:55 AM 33.8 °F 24.8 °F 26.6 °F 75% 29.98 in 10.0 mi WNW 12.7 mph - N/A   Clear
4:15 AM 33.8 °F 26.4 °F 26.6 °F 75% 29.98 in 10.0 mi WNW 9.2 mph - N/A   Clear
4:35 AM 33.8 °F 27.0 °F 26.6 °F 75% 29.98 in 10.0 mi West 8.1 mph - N/A   Clear
4:55 AM 33.8 °F 27.0 °F 26.6 °F 75% 29.98 in 10.0 mi West 8.1 mph - N/A   Clear
5:15 AM 32.0 °F 25.6 °F 26.6 °F 80% 30.00 in 10.0 mi West 6.9 mph - N/A   Clear
5:35 AM 32.0 °F 27.5 °F 26.6 °F 80% 30.00 in 10.0 mi West 4.6 mph - N/A   Clear
5:55 AM 30.2 °F - 26.6 °F 86% 30.00 in 10.0 mi Calm Calm - N/A   Clear
6:15 AM 30.2 °F - 26.6 °F 86% 30.01 in 10.0 mi Calm Calm - N/A   Clear
6:35 AM 30.2 °F 26.7 °F 26.6 °F 86% 30.01 in 10.0 mi WSW 3.5 mph - N/A   Clear
6:55 AM 30.2 °F 25.4 °F 26.6 °F 86% 30.03 in 10.0 mi West 4.6 mph - N/A   Clear
7:15 AM 30.2 °F 24.3 °F 26.6 °F 86% 30.03 in 10.0 mi WSW 5.8 mph - N/A   Clear
7:35 AM 30.2 °F - 26.6 °F 86% 30.03 in 10.0 mi Calm Calm - N/A   Clear
7:55 AM 32.0 °F 28.7 °F 26.6 °F 80% 30.04 in 10.0 mi WSW 3.5 mph - N/A   Clear
8:15 AM 32.0 °F 24.8 °F 26.6 °F 80% 30.05 in 10.0 mi West 8.1 mph - N/A   Clear
8:35 AM 33.8 °F 25.8 °F 28.4 °F 81% 30.05 in 10.0 mi West 10.4 mph - N/A   Clear
8:55 AM 33.8 °F 24.3 °F 26.6 °F 75% 30.06 in 10.0 mi West 13.8 mph 17.3 mph N/A   Clear
9:15 AM 33.8 °F 24.8 °F 28.4 °F 81% 30.07 in 10.0 mi West 12.7 mph - N/A   Clear
9:35 AM 35.6 °F 27.1 °F 28.4 °F 75% 30.08 in 10.0 mi West 12.7 mph 17.3 mph N/A   Scattered Clouds
9:55 AM 35.6 °F 27.1 °F 28.4 °F 75% 30.08 in 10.0 mi West 12.7 mph - N/A   Scattered Clouds
10:15 AM 37.4 °F 30.8 °F 30.2 °F 75% 30.08 in 10.0 mi WNW 9.2 mph - N/A   Clear
10:35 AM 37.4 °F 31.4 °F 28.4 °F 70% 30.07 in 10.0 mi WSW 8.1 mph - N/A   Clear
10:55 AM 39.2 °F 33.0 °F 30.2 °F 70% 30.08 in 10.0 mi West 9.2 mph - N/A   Clear
11:15 AM 39.2 °F 34.2 °F 28.4 °F 65% 30.09 in 10.0 mi West 6.9 mph - N/A   Clear
11:35 AM 39.2 °F 32.5 °F 30.2 °F 70% 30.09 in 10.0 mi WSW 10.4 mph - N/A   Clear
11:55 AM 41.0 °F 33.5 °F 28.4 °F 61% 30.09 in 10.0 mi West 13.8 mph - N/A   Clear
12:15 PM 42.8 °F 36.2 °F 28.4 °F 57% 30.09 in 10.0 mi West 12.7 mph 18.4 mph N/A   Clear
12:35 PM 42.8 °F 37.0 °F 28.4 °F 57% 30.09 in 10.0 mi WSW 10.4 mph 17.3 mph N/A   Clear
12:55 PM 44.6 °F 38.8 °F 28.4 °F 53% 30.08 in 10.0 mi West 11.5 mph 16.1 mph N/A   Clear
1:15 PM 44.6 °F 38.4 °F 26.6 °F 49% 30.07 in 10.0 mi WSW 12.7 mph 16.1 mph N/A   Clear
1:35 PM 44.6 °F 39.2 °F 26.6 °F 49% 30.07 in 10.0 mi West 10.4 mph 17.3 mph N/A   Clear
1:55 PM 46.4 °F 40.7 °F 28.4 °F 50% 30.07 in 10.0 mi West 12.7 mph 20.7 mph N/A   Clear
2:15 PM 46.4 °F 39.8 °F 28.4 °F 50% 30.06 in 10.0 mi West 16.1 mph 19.6 mph N/A   Clear
2:35 PM 46.4 °F 42.4 °F 28.4 °F 50% 30.05 in 10.0 mi SW 8.1 mph 17.3 mph N/A   Clear
2:55 PM 46.4 °F 40.1 °F 30.2 °F 53% 30.05 in 10.0 mi West 15.0 mph 18.4 mph N/A   Clear
3:15 PM 46.4 °F 40.7 °F 30.2 °F 53% 30.05 in 10.0 mi West 12.7 mph 18.4 mph N/A   Clear
3:35 PM 48.2 °F - 30.2 °F 50% 30.05 in 10.0 mi West 12.7 mph 16.1 mph N/A   Clear
3:55 PM 48.2 °F - 30.2 °F 50% 30.04 in 10.0 mi West 11.5 mph 17.3 mph N/A   Clear
4:15 PM 46.4 °F 40.7 °F 30.2 °F 53% 30.05 in 10.0 mi West 12.7 mph - N/A   Clear
4:35 PM 48.2 °F - 30.2 °F 50% 30.05 in 10.0 mi WSW 17.3 mph 21.9 mph N/A   Mostly Cloudy
4:55 PM 48.2 °F - 30.2 °F 50% 30.04 in 10.0 mi West 13.8 mph 19.6 mph N/A   Mostly Cloudy
5:15 PM 46.4 °F 40.7 °F 28.4 °F 50% 30.04 in 10.0 mi WSW 12.7 mph 18.4 mph N/A   Scattered Clouds
5:35 PM 46.4 °F 40.7 °F 30.2 °F 53% 30.04 in 10.0 mi West 12.7 mph 23.0 mph N/A   Mostly Cloudy
5:55 PM 46.4 °F 39.8 °F 30.2 °F 53% 30.04 in 10.0 mi West 16.1 mph 20.7 mph N/A   Overcast
6:15 PM 44.6 °F 38.1 °F 30.2 °F 57% 30.05 in 10.0 mi WNW 13.8 mph 25.3 mph N/A   Mostly Cloudy
6:35 PM 44.6 °F 38.8 °F 30.2 °F 57% 30.05 in 10.0 mi West 11.5 mph 17.3 mph N/A   Overcast
6:55 PM 42.8 °F 35.4 °F 32.0 °F 66% 30.07 in 10.0 mi WNW 15.0 mph 23.0 mph N/A   Overcast
7:15 PM 42.8 °F 35.8 °F 32.0 °F 66% - 10.0 mi WNW 13.8 mph - N/A   Mostly Cloudy
7:35 PM 41.0 °F 34.3 °F 32.0 °F 70% 30.08 in 10.0 mi WNW 11.5 mph 17.3 mph N/A   Scattered Clouds
7:55 PM 39.2 °F 32.0 °F 32.0 °F 75% 30.09 in 10.0 mi WNW 11.5 mph - N/A   Clear
8:15 PM 39.2 °F 32.5 °F 30.2 °F 70% 30.09 in 10.0 mi West 10.4 mph - N/A   Clear
8:35 PM 39.2 °F 32.5 °F 30.2 °F 70% 30.10 in 10.0 mi WNW 10.4 mph - N/A   Clear
8:55 PM 39.2 °F 32.0 °F 30.2 °F 70% 30.11 in 10.0 mi WNW 11.5 mph - N/A   Clear
9:15 PM 39.2 °F 32.5 °F 30.2 °F 70% 30.11 in 10.0 mi WNW 10.4 mph 16.1 mph N/A   Scattered Clouds
9:35 PM 37.4 °F 28.9 °F 30.2 °F 75% 30.12 in 10.0 mi WNW 13.8 mph - N/A   Scattered Clouds
9:55 PM 37.4 °F 28.5 °F 26.6 °F 65% 30.12 in 10.0 mi WNW 15.0 mph - N/A   Clear
10:15 PM 37.4 °F 30.8 °F 28.4 °F 70% 30.13 in 10.0 mi West 9.2 mph - N/A   Scattered Clouds
10:35 PM 35.6 °F 29.2 °F 26.6 °F 70% 30.13 in 10.0 mi West 8.1 mph - N/A   Scattered Clouds
10:55 PM 35.6 °F 28.6 °F 26.6 °F 70% 30.13 in 10.0 mi West 9.2 mph - N/A   Clear
11:15 PM 35.6 °F 28.0 °F 26.6 °F 70% 30.14 in 10.0 mi West 10.4 mph 19.6 mph N/A   Scattered Clouds
11:35 PM 37.4 °F 27.8 °F 28.4 °F 70% 30.14 in 10.0 mi WNW 17.3 mph 26.5 mph N/A   Overcast
11:55 PM 35.6 °F 28.0 °F 28.4 °F 75% 30.14 in 10.0 mi West 10.4 mph - N/A Snow Light Snow